SCOUT X-4 R/B, 721

Orbit data source: Space-Track

SCOUT X-4 R/B, 721 is space debris in LEO originally from a launch on Thu, 19 Dec 1963 UTC launched from the Air Force Western Test Range (AFWTR). Debris objects in space refer to the collection of defunct objects orbiting the Earth. Examples of debris include non-operational satellites, rocket bodies, and fragments generated from explosions, collisions, or faulty payload assembly.

Loading next visibility...
SCOUT X-4 R/B details
Identifier
721, 1963-053B
Orbit
LEO
Last TLE update1 day ago
Origin
Flag of USNASA LaRC (US)
ManufacturerABL
MissionSpacecraft
Bus & MotorALTAIR, Unknown motor
Mass68 kg wet, 33 kg dry
Launch date (UTC)
1963-12-19 (61 years ago)
Launch vehicleUnknown
Launch site
Air Force Western Test Range (AFWTR)
Object type
Payload
Rocket body
Debris
Shape & HBRCyl, 1.5 m
Radar Cross Section0.687 m², Medium (>0.1 m² and < 1m²)

Expand to show TLE details & history

TLE from 1 day ago
0 SCOUT X-4 R/B
1 00721U 63053B   24356.26892631  .00000666  00000-0  38868-3 0  9998
2 00721  78.6034 286.3337 1088038  57.7977 312.3949 12.54648477781951
Epoch: 2024-12-21T06:27Z
Definitive object data (Epoch: 2024-12-21T06:27:15.233Z)
Latitude-0.00001°
Longitude99.19771°
Altitude930.078 km
Speed7.627 km/s
True Right ascension19h 05m 20s
True Declination0° 00' 00"
Sunlit
Object was in daylight at TLE epoch
Visualization TLE readout
Latitude24.64382°
Longitude-87.054°
Altitude1,489.623 km
Speed7.102 km/s
Apparent Right ascension09h 00m 55s
Apparent Declination-14° 09' 09"
Sunlit
Object is in full shadow
Visualization observer readout
Local Sidereal Time05:12:01
Azimuth122.746° SE
Elevation14.223°
Doppler factor1
Orbital elements
Apogee altitude2,293.512 km
Perigee altitude591.663 km
Semi-major axis7,820.724 km
Eccentricity0.1088038
Inclination78.6034°
RAAN286.3337°
Arg. of periapsis57.7977°
True anomaly302.31452°
Mean anomaly312.3949°
Eccentric anomaly307.44553°
Mean motion3.13814 °/min
BSTAR0.00038868
Orbital period114.72 mins
Loading maneuver chart data...
Loading historical data...
Loading historical data...
Loading historical data...
Loading historical data...
Loading historical data...
Loading historical data...
Loading historical data...

SCOUT X-4 R/B Visibility forecast

Observer location: undefined°, undefined

Span
Click to sort rows by Start time (UTC) header in descending order
Start Az.
Max El. time (UTC)
Max El. Az.
Max El.
End time (UTC)
End Az.
13 mins2024-12-22 07:53:18.811Z326.238° NNW2024-12-22 07:57:18.811Z270.013° WNW37.423°2024-12-22 08:06:18.811Z190.598° SSW
6 mins2024-12-22 20:52:18.811Z221.433° SW2024-12-22 20:54:18.811Z268.048° W35.844°2024-12-22 20:58:18.811Z359.59° N
|